Home   Weather   Chester   Past weeks

Flag for United Kingdom Past Weather in Chester, England, United Kingdom — Yesterday and Last 2 Weeks

Now
27 °F

Fog.


Feels Like: 23 °F
Forecast: 32 / 39 °F
Wind: 3 mph from Southeast

Location: Hawarden

Current Time: Dec 5, 2016 at 4:33:07 am

Latest Report: Dec 5, 2016 at 3:00 am


Visibility: 4 mi

Pressure: 30.25 "Hg

Humidity: 97%

Dew Point: 26 °F

Location of ChesterLocation

Past Weather in Chester — Graph

°F

Chester Temperature Yesterday

Maximum temperature yesterday: 44 °F (at 1:00 pm)
Minimum temperature yesterday: 29 °F (at 11:00 pm)
Average temperature yesterday: 35 °F

High & Low Weather Summary for the Past Weeks

 TemperatureHumidityPressure
High51 °F (Dec 1, 3:00 pm)100% (Nov 21, 1:00 am)30.58 "Hg (Nov 21, 1:00 am)
Low23 °F (Nov 26, 6:00 am)65% (Nov 28, 1:00 pm)29.09 "Hg (Nov 20, 5:00 am)
Average38 °F89%30.17 "Hg
* Reported Nov 20 3:00 am — Dec 5 3:00 am, Chester, Weather by CustomWeather, © 2016

Note: Actual official high and low records may vary slightly from our data, if they occured in-between our weather recording intervals... More about our weather records

Advertising

Chester Weather History for the Previous 24 Hours

Scroll right to see more
 ConditionsComfort  
Time TempWeatherWind HumidityBarometerVisibility
3:00 am
Mon, Dec 5
27 °FFog.3 mph97%30.25 "Hg4 mi
2:00 am26 °FFog.2 mph96%30.25 "Hg4 mi
1:00 am28 °FFog.No wind98%30.25 "Hg4 mi
12:00 am28 °FFog.1 mph98%30.26 "Hg4 mi
11:00 pm
Sun, Dec 4
29 °FFog.1 mph96%30.27 "Hg6 mi
10:00 pm30 °FFog.1 mph98%30.27 "Hg5 mi
9:00 pm29 °FFog.1 mph96%30.27 "Hg4 mi
8:00 pm31 °FFog.3 mph97%30.27 "Hg6 mi
6:00 pm33 °FChilly.5 mph88%30.26 "Hg9 mi
5:00 pm35 °FChilly.5 mph83%30.26 "Hg14 mi
4:00 pm39 °FChilly.6 mph83%30.25 "Hg18 mi
3:00 pm43 °FQuite cool.7 mph73%30.25 "Hg16 mi
2:00 pm44 °FQuite cool.7 mph76%30.26 "Hg12 mi
1:00 pm44 °FQuite cool.7 mph77%30.26 "Hg16 mi
12:00 pm43 °FQuite cool.5 mph73%30.28 "Hg19 mi
11:00 am40 °FQuite cool.1 mph73%30.30 "Hg22 mi
10:00 am39 °FChilly.2 mph82%30.31 "Hg18 mi
9:00 am34 °FChilly.3 mph91%30.31 "Hg14 mi
8:00 am34 °FChilly.3 mph91%30.31 "Hg18 mi
6:00 am30 °FChilly.5 mph96%30.30 "Hg9 mi
5:00 am33 °FChilly.2 mph95%30.31 "Hg10 mi
4:00 am31 °FChilly.2 mph95%30.30 "Hg11 mi
Weather by CustomWeather, © 2016

See weather overviewHow to use our weather pages